Regional Weather Roundup
Issued by NWS

Home | Current Version | Previous Version | Text Only | Print | Product List | Glossary On
Versions: 1 2 3 4 5 6 7 8 9 10 11 12 13 14 15 16 17 18 19 20 21 22 23 24 25 26 27 28 29 30 31 32 33 34 35 36 37 38 39 40 41 42 43 44 45 46 47 48 49 50
000
ASUS43 KLSX 281607
RWRMO

WEATHER SUMMARY FOR MISSOURI
NATIONAL WEATHER SERVICE SPRINGFIELD MO
1100 AM CDT THU AUG 28 2014

NOTE: "FAIR" INDICATES FEW OR NO CLOUDS BELOW 12,000 FEET WITH NO
       SIGNIFICANT WEATHER AND/OR OBSTRUCTIONS TO VISIBILITY.
       CURRENT SKY AND/OR WEATHER CONDITIONS ARE NOT AVAILABLE FOR
       CHILLICOTHE AND FARMINGTON.

MOZ001>031-035>038-043-044-053-054-281700-
...NORTHERN AND WESTERN MISSOURI...

CITY           SKY/WX    TMP DP  RH WIND       PRES   REMARKS
KANSAS CTY INT PTSUNNY   83  71  67 SW5       29.99S
KANSAS C DTWN  MOSUNNY   86  70  58 VRB7      29.97S HX  90
LEE`S SUMMIT   PTSUNNY   81  70  69 SW7       30.00S
ST JOSEPH      PTSUNNY   80  73  79 CALM      29.98S
CHILLICOTHE      N/A     76  71  85 E3        30.01R
KIRKSVILLE     PTSUNNY   78  72  81 SE9       30.02F

$$
MOZ066>068-077>081-088>096-101>105-281700-
...SOUTHWEST MISSOURI...

CITY           SKY/WX    TMP DP  RH WIND       PRES   REMARKS
SPRINGFIELD    MOSUNNY   85  67  54 S14       30.04S
JOPLIN         MOSUNNY   87  66  49 SW12      30.02S

$$
MOZ032>034-039>042-045>050-055>058-069>072-281700-
...CENTRAL MISSOURI...

CITY           SKY/WX    TMP DP  RH WIND       PRES   REMARKS
COLUMBIA       SUNNY     88  70  55 S12       30.03S HX  93
JEFFERSON CITY SUNNY     86  71  60 VRB7      30.02S HX  91
ROLLA          SUNNY     86  68  54 S13       30.04S
SEDALIA        MOSUNNY   87  72  60 S9        30.02R HX  93
WHITEMAN AFB   MOSUNNY   83  73  71 SW8       30.00S
OSAGE BEACH    SUNNY     88  70  55 S8        30.03S HX  92

$$
MOZ051-052-059>065-281700-
...EAST CENTRAL MISSOURI...

CITY           SKY/WX    TMP DP  RH WIND       PRES   REMARKS
ST LOUIS INTL  MOSUNNY   84  71  65 SE8       30.05S
SPIRIT OF STL  MOSUNNY   84  72  67 CALM      30.03S
ST CHARLES     SUNNY     83  72  69 SE7       30.04S

$$
MOZ072>076-082>087-097>100-106>115-281700-
...SOUTH CENTRAL AND SOUTHEAST MISSOURI...

CITY           SKY/WX    TMP DP  RH WIND       PRES   REMARKS
CAPE GIRARDEAU SUNNY     85  73  67 CALM      30.03F HX  91
FARMINGTON     SUNNY     84  72  65 CALM      30.08F
POPLAR BLUFF   SUNNY     87  68  52 VRB3      30.03F HX  90
WEST PLAINS    MOSUNNY   84  66  54 S10       30.08S

$$



USA.gov is the U.S. government's official web portal to all federal, state and local government web resources and services.